Simultaneous Nadir Overpasses (SNOs) Predictions

Prediction of SNOs between GOES-14 and AQUA Satellite Orbit:

Table of predicted SNOs for the next 14.0 days since TLE Epoch: 4/15/2022
Index Date Time (GOES-14) GOES-14 Lat,Lon AQUA Lat,Lon Distance(km) Time Diff (sec)
1 04/17/2022 20:26:42 -0.12,-104.51 0.26,-102.66 209.71 80
2 04/18/2022 08:47:54 0.11,-104.46 0.85,-107.80 379.81 80
3 04/20/2022 08:35:31 0.11,-104.46 0.17,-104.79 37.17 80
4 04/22/2022 08:25:47 0.11,-104.46 -0.46,-101.77 305.19 80
5 04/22/2022 20:47:08 -0.10,-104.52 -0.64,-106.95 277.15 80
6 04/24/2022 20:32:04 -0.11,-104.51 0.01,-103.94 65.24 80
7 04/26/2022 20:19:39 -0.12,-104.51 0.63,-100.91 408.37 80
8 04/27/2022 08:40:50 0.10,-104.43 0.46,-106.05 184.38 80
9 04/29/2022 08:31:05 0.10,-104.44 -0.17,-103.03 159.65 80
